Regional Weather Roundup
Issued by NWS Raleigh/Durham, NC

Home | Current Version | Previous Version | Text Only | Print | Product List | Glossary On
Versions: 1 2 3 4 5 6 7 8 9 10 11 12 13 14 15 16 17 18 19 20 21 22 23 24 25 26 27 28 29 30 31 32 33 34 35 36 37 38 39 40 41 42 43 44 45 46 47 48 49 50
000
ASUS42 KRAH 210510
RWRRAH
NORTH CAROLINA WEATHER ROUNDUP
NATIONAL WEATHER SERVICE RALEIGH NC
1200 AM EST SUN DEC 21 2014

NOTE: "FAIR" INDICATES FEW OR NO CLOUDS BELOW 12,000 FEET WITH NO
SIGNIFICANT WEATHER AND/OR OBSTRUCTIONS TO VISIBILITY.

NCZ001-053-055-056-065-067-210600-
WESTERN NORTH CAROLINA

CITY           SKY/WX    TMP DP  RH WIND       PRES   REMARKS
ASHEVILLE      CLOUDY    39  37  92 S5        30.20F FOG
JEFFERSON      CLOUDY    34  33  96 CALM      30.16S
MORGANTON      CLOUDY    40  37  86 CALM      30.28R
HICKORY        CLOUDY    41  32  70 CALM      30.23S
RUTHERFORDTON  CLOUDY    41  39  95 CALM      30.24F FOG
MOUNT AIRY     CLOUDY    39  33  78 CALM      30.25F
BOONE          CLOUDY    37  36  96 W5        30.17S WCI  33
$$

NCZ021-022-025-041-071-084-088-210600-
CENTRAL NORTH CAROLINA

CITY           SKY/WX    TMP DP  RH WIND       PRES   REMARKS
CHARLOTTE      CLOUDY    42  34  73 E5        30.26S
GREENSBORO     CLOUDY    38  34  85 CALM      30.24F
WINSTON-SALEM  CLOUDY    38  33  82 CALM      30.25F
RALEIGH-DURHAM CLOUDY    38  34  85 CALM      30.28S FOG
FORT BRAGG     CLOUDY    38  36  93 CALM      30.27
FAYETTEVILLE   CLOUDY    38  36  92 CALM      30.27F FOG
BURLINGTON     CLOUDY    36  32  85 CALM      30.26F
LAURINBURG     CLOUDY    39  36  89 CALM      30.28S
$$

NCZ011-015-027-028-043-044-047-080-103-210600-
NORTHEASTERN NORTH CAROLINA

CITY           SKY/WX    TMP DP  RH WIND       PRES   REMARKS
ROCKY MT-WILSO CLOUDY    35  33  92 CALM      30.28F FOG
GREENVILLE     PTCLDY    37  36  93 CALM      30.29R
WASHINGTON     CLOUDY    39  33  81 CALM      30.28S
ELIZABETH CITY CLEAR     39  30  70 N7        30.29S WCI  34
MANTEO         CLEAR     39  34  81 N3        30.27S
CAPE HATTERAS  CLEAR     42  37  82 NE6       30.25F
$$

NCZ078-087-090-091-093-098-101-210600-
SOUTHEASTERN NORTH CAROLINA

CITY           SKY/WX    TMP DP  RH WIND       PRES   REMARKS
LUMBERTON      CLOUDY    40  37  89 N3        30.27R FOG
GOLDSBORO      CLEAR     35  35  98 CALM      30.27S
KINSTON        PTCLDY    35  33  94 NW5       30.29R FOG     WCI  31
KENANSVILLE    CLEAR     32  32 100 CALM      30.28F FOG
NEW BERN       CLEAR     38  34  85 N3        30.28F
CHERRY POINT   MOCLDY    39  35  86 N6        30.27F WCI  35
BEAUFORT       CLOUDY    40  36  86 NE3       30.26F
JACKSONVILLE   CLOUDY    38  36  92 N3        30.26F
WILMINGTON     CLOUDY    38  37  97 NE6       30.25F WCI  33
$$




USA.gov is the U.S. government's official web portal to all federal, state and local government web resources and services.